Weather Roundup
Issued by NWS Chicago, IL

Home | Current Version | Previous Version | Graphics & Text | Print | Product List | Glossary On
Versions: 1 2 3 4 5 6 7 8 9 10 11 12 13 14 15 16 17 18 19 20 21 22 23 24 25 26 27 28 29 30 31 32 33 34 35 36 37 38 39 40 41 42 43 44 45 46 47 48 49 50
000
NZUS59 KLOT 200800
HRRLOT

CHICAGO AREA WEATHER ROUNDUP
NATIONAL WEATHER SERVICE CHICAGO/ROMEOVILLE IL
300 AM CDT WED AUG 20 2014

NOTE: "FAIR" INDICATES FEW OR NO CLOUDS BELOW 12,000 FEET WITH NO
SIGNIFICANT WEATHER AND/OR OBSTRUCTIONS TO VISIBILITY.

* THESE STATIONS ARE NOT UNDER NWS QUALITY CONTROL. THEY ALSO MAY NOT
  REPORT WEATHER SUCH AS PRECIPITATION OR FOG.

ILZ005-006-012>014-019>023-200900-
NORTHEAST ILLINOIS

CITY           SKY/WX    TMP DP  RH WIND       PRES   REMARKS
OHARE          CLEAR     69  61  75 W6        29.79R
MIDWAY         CLEAR     71  66  84 W5        29.79S
AURORA         CLEAR     62  60  93 SW5       29.81S
LANSING*       CLEAR     66  64  94 CALM      29.81S
WAUKEGAN       MOCLDY    68  63  84 CALM      29.78S
DUPAGE AIRPORT CLEAR     66  62  87 SW6       29.80S
WHEELING       CLEAR     69  63  81 W3        29.80S
NORTHERLY IS     N/A     72  63  73 W6          N/A
$$

WIZ051-052-058>065-066-070>072-200900-
SOUTHEAST WISCONSIN

CITY           SKY/WX    TMP DP  RH WIND       PRES   REMARKS
MILWAUKEE      CLEAR     68  62  81 W6        29.78R
KENOSHA*       CLEAR     63  61  93 W7        29.79S
RACINE*        CLEAR     67  63  87 W5        29.80R
$$

INZ001>003-010>013-019-020-200900-
NORTHWEST INDIANA

CITY           SKY/WX    TMP DP  RH WIND       PRES   REMARKS
GARY*          NOT AVBL
MICHIGAN CITY* NOT AVBL
RENSSELAER*    NOT AVBL
VALPARAISO     CLEAR     65  64  97 W6        29.81R
$$

LMZ740>746-200900-
SOUTHERN LAKE MICHIGAN

STATION/POSITION TIME  SKY/WX   TEMP WIND        PRES    VSBY
                                AIR  DIR/SP/G
                 (UTC)          (F)  (DEG/KT/KT) (MB)    (MI)
HARRISON CRIB    0700            73  280/  9/ 10   N/A
BURNHAM HARBOR   0800            72  260/  6       N/A
CALUMET HARBOR   0700            72  220/  3/  5 1007.8R
BURNS HARBOR     0800            73  230/  7/  9   N/A
MICHIGAN CITY    0700            73  220/ 12/ 14   N/A
$$

ABBREVIATIONS USED IN REMARKS
   TC - TEMPERATURE IN CELSIUS
  WCI - WIND CHILL INDEX
   HX - HEAT INDEX
  VSB - VISIBILITY
$$


USA.gov is the U.S. government's official web portal to all federal, state and local government web resources and services.